Terug naar catalogus

BREEZE-M DEB

ADAPTOR

ActiefHEO
NORAD 37787·DEBRIS·🇷🇺 Russia

Gelanceerd Jul 15, 2011 vanaf Baikonur Cosmodrome

Loading…

Volgende Passages (komende 24 uur)

TLE

VersSource: Space-Track

Epoch: Sep 14, 2026, 19:32 UTC

1 37787U 11035E   26257.81401444 -.00000043  00000-0  00000-0 0  9998
2 37787  24.9257  46.8940 6136083 203.8905 124.5908  2.05989508111972

Volg BREEZE-M DEB in realtime met AllMySat

Download on the App Store